shoulder
new_line
new_line
first
second
third
Al di la della Luna; Beyond the Moon; Astrophotography; Astrofotografia; Danilo Pivato
 
 
         
         
2011

Orbital Elements

Epoch 2011 Dec. 25.0 TT = JDT 2455920.5
T 2011 Dec. 23.67643 TT                                                      MPC
q   1.5505362                           (2000.0)            P               Q
z  -0.0006452      Peri.   90.74636     -0.16659237     -0.82691440
                         Node   325.99761     -0.58720598     +0.52077429
e   1.0010003     Incl.  106.17731     +0.79210866     +0.21214785ì                        
 
         
         
2011.07.29
2011.07.30
2011.08.01
2011.08.02 & M15
Comet in transit with M15 [44,5Mb]
         
2011.08.07
2011.08.20
2011.08.22
2011.08.25
2011.08.29
         
2011.09.10
2011.09.16
2011.09.21
2011.09.30
2011.10.01
         
   
2011.10.10
2011.10.14
2011.10.22
   
         
         
         

 

       
 
Since: 01/01/2004
 
           
Since: 01/11/2010